• In United Kingdom
  • List of Countries
  • For 7 days
  • Water Temperature
  • Satellite Maps
  • Weather Map
  • Weather Widgets
  • user-avatar
    Login

    Hourly Weather Artashat

    Today, 18 January, Thursday

    Time Temperature Precipitation Wind Pressure Humidity
    00:00 -9°C° 0 mm 2 mps 594 mmHg 72%
    01:00 -9°C° 0.2 mm 2 mps 594 mmHg 74%
    02:00 -9°C° 0.2 mm 2 mps 594 mmHg 76%
    03:00 -8°C° 0 mm 2 mps 593 mmHg 83%
    04:00 -8°C° 0.4 mm 2 mps 593 mmHg 84%
    05:00 -8°C° 0.4 mm 2 mps 593 mmHg 86%
    06:00 -8°C° 0.4 mm 2 mps 593 mmHg 87%
    07:00 -7°C° 0.3 mm 2 mps 593 mmHg 87%
    08:00 -8°C° 0.3 mm 3 mps 593 mmHg 86%
    09:00 -7°C° 0.3 mm 3 mps 593 mmHg 86%
    10:00 -7°C° 0.2 mm 3 mps 593 mmHg 84%
    11:00 -7°C° 0.2 mm 4 mps 593 mmHg 82%
    12:00 -5°C° 0.2 mm 4 mps 593 mmHg 80%
    13:00 -4°C° 0.1 mm 4 mps 593 mmHg 78%
    14:00 -4°C° 0.1 mm 4 mps 592 mmHg 76%
    15:00 -4°C° 0.1 mm 4 mps 592 mmHg 75%
    16:00 -5°C° 0 mm 3 mps 592 mmHg 75%
    17:00 -6°C° 0 mm 3 mps 591 mmHg 76%
    18:00 -7°C° 0 mm 3 mps 591 mmHg 77%
    19:00 -8°C° 0 mm 3 mps 591 mmHg 76%
    20:00 -8°C° 0 mm 3 mps 591 mmHg 74%
    21:00 -8°C° 0 mm 3 mps 591 mmHg 73%
    22:00 -8°C° 0 mm 3 mps 591 mmHg 73%
    23:00 -8°C° 0 mm 3 mps 591 mmHg 72%

    Tomorrow, 19 January, Friday

    Time Temperature Precipitation Wind Pressure Humidity
    00:00 -8°C° 0 mm 3 mps 591 mmHg 72%
    01:00 -9°C° 0 mm 3 mps 590 mmHg 72%
    02:00 -9°C° 0 mm 3 mps 590 mmHg 72%
    03:00 -8°C° 0 mm 2 mps 590 mmHg 72%
    04:00 -8°C° 0 mm 2 mps 590 mmHg 73%
    05:00 -8°C° 0 mm 2 mps 590 mmHg 73%
    06:00 -8°C° 0 mm 2 mps 590 mmHg 74%
    07:00 -8°C° 0 mm 2 mps 590 mmHg 74%
    08:00 -7°C° 0 mm 2 mps 591 mmHg 74%
    09:00 -6°C° 0 mm 2 mps 592 mmHg 75%
    10:00 -5°C° 0 mm 2 mps 592 mmHg 75%
    11:00 -3°C° 0 mm 2 mps 592 mmHg 75%
    12:00 -2°C° 0 mm 2 mps 592 mmHg 75%
    13:00 -2°C° 0 mm 2 mps 592 mmHg 74%
    14:00 -1°C° 0 mm 2 mps 593 mmHg 74%
    15:00 -1°C° 0 mm 2 mps 593 mmHg 73%
    16:00 -2°C° 0 mm 2 mps 593 mmHg 74%
    17:00 -3°C° 0 mm 2 mps 593 mmHg 75%
    18:00 -4°C° 0 mm 2 mps 593 mmHg 76%
    19:00 -4°C° 0 mm 2 mps 593 mmHg 76%
    20:00 -5°C° 0 mm 2 mps 593 mmHg 76%
    21:00 -5°C° 0 mm 2 mps 593 mmHg 77%
    22:00 -5°C° 0 mm 2 mps 593 mmHg 76%
    23:00 -5°C° 0 mm 2 mps 593 mmHg 76%

    Day after tomorrow, 20 January, Saturday

    Time Temperature Precipitation Wind Pressure Humidity
    00:00 -5°C° 0 mm 2 mps 594 mmHg 76%
    01:00 -5°C° 0.1 mm 2 mps 594 mmHg 76%
    02:00 -6°C° 0.1 mm 2 mps 594 mmHg 77%
    03:00 -6°C° 0.1 mm 2 mps 595 mmHg 77%
    04:00 -6°C° 0 mm 2 mps 595 mmHg 76%
    05:00 -6°C° 0 mm 2 mps 595 mmHg 76%
    06:00 -7°C° 0 mm 2 mps 595 mmHg 75%
    07:00 -6°C° 0 mm 2 mps 596 mmHg 74%
    08:00 -6°C° 0 mm 2 mps 597 mmHg 72%
    09:00 -5°C° 0 mm 2 mps 598 mmHg 70%
    10:00 -4°C° 0 mm 2 mps 598 mmHg 69%
    11:00 -3°C° 0 mm 2 mps 598 mmHg 67%
    12:00 -2°C° 0 mm 2 mps 599 mmHg 66%
    13:00 0°C° 0 mm 1 mps 599 mmHg 65%
    14:00 0°C° 0 mm 1 mps 599 mmHg 65%
    15:00 0°C° 0 mm 1 mps 599 mmHg 65%
    16:00 -1°C° 0 mm 1 mps 599 mmHg 66%
    17:00 -2°C° 0 mm 1 mps 599 mmHg 67%
    18:00 -4°C° 0 mm 1 mps 599 mmHg 68%
    19:00 -4°C° 0 mm 1 mps 599 mmHg 68%
    20:00 -7°C° 0 mm 2 mps 599 mmHg 68%
    21:00 -7°C° 0 mm 2 mps 600 mmHg 69%
    22:00 -7°C° 0 mm 2 mps 600 mmHg 68%
    23:00 -8°C° 0 mm 2 mps 600 mmHg 68%

    21 January, Sunday

    Time Temperature Precipitation Wind Pressure Humidity
    00:00 -8°C° 0 mm 2 mps 600 mmHg 68%
    01:00 -8°C° 0 mm 2 mps 600 mmHg 67%
    02:00 -8°C° 0 mm 2 mps 600 mmHg 67%
    03:00 -8°C° 0 mm 2 mps 600 mmHg 66%
    04:00 -8°C° 0 mm 2 mps 600 mmHg 66%
    05:00 -8°C° 0 mm 2 mps 600 mmHg 65%
    06:00 -9°C° 0 mm 2 mps 600 mmHg 64%
    07:00 -8°C° 0 mm 2 mps 600 mmHg 63%
    08:00 -7°C° 0 mm 2 mps 601 mmHg 61%
    09:00 -6°C° 0 mm 2 mps 601 mmHg 60%
    10:00 -3°C° 0 mm 1 mps 601 mmHg 60%
    11:00 -1°C° 0 mm 1 mps 601 mmHg 60%
    12:00 0°C° 0 mm 1 mps 601 mmHg 60%
    13:00 0°C° 0 mm 1 mps 601 mmHg 60%
    14:00 +1°C° 0 mm 1 mps 601 mmHg 59%
    15:00 +1°C° 0 mm 1 mps 601 mmHg 59%
    16:00 -1°C° 0 mm 1 mps 600 mmHg 59%
    17:00 -4°C° 0 mm 2 mps 600 mmHg 58%
    18:00 -5°C° 0 mm 2 mps 600 mmHg 58%
    19:00 -6°C° 0 mm 2 mps 600 mmHg 56%
    20:00 -6°C° 0 mm 2 mps 600 mmHg 53%
    21:00 -6°C° 0 mm 2 mps 600 mmHg 51%
    22:00 -6°C° 0 mm 2 mps 599 mmHg 49%
    23:00 -7°C° 0 mm 2 mps 599 mmHg 47%

    22 January, Monday

    Time Temperature Precipitation Wind Pressure Humidity
    00:00 -7°C° 0 mm 2 mps 599 mmHg 46%
    01:00 -7°C° 0 mm 2 mps 599 mmHg 45%
    02:00 -6°C° 0 mm 1 mps 598 mmHg 44%
    03:00 -6°C° 0 mm 1 mps 598 mmHg 44%
    04:00 -4°C° 0 mm 1 mps 598 mmHg 43%
    05:00 -4°C° 0 mm 1 mps 598 mmHg 43%
    06:00 -4°C° 0 mm 1 mps 598 mmHg 43%
    07:00 -3°C° 0 mm 1 mps 598 mmHg 43%
    08:00 -3°C° 0 mm 1 mps 598 mmHg 44%
    09:00 -2°C° 0 mm 1 mps 598 mmHg 44%
    10:00 0°C° 0 mm 1 mps 598 mmHg 46%
    11:00 +1°C° 0 mm 1 mps 598 mmHg 47%
    12:00 +2°C° 0 mm 1 mps 598 mmHg 48%
    13:00 +2°C° 0 mm 1 mps 597 mmHg 48%
    14:00 +2°C° 0 mm 1 mps 597 mmHg 48%
    15:00 +1°C° 0 mm 2 mps 597 mmHg 48%
    16:00 -1°C° 0 mm 2 mps 596 mmHg 48%
    17:00 -3°C° 0 mm 2 mps 596 mmHg 47%
    18:00 -4°C° 0 mm 2 mps 596 mmHg 47%
    19:00 -5°C° 0 mm 2 mps 596 mmHg 45%
    20:00 -5°C° 0 mm 2 mps 596 mmHg 44%
    21:00 -6°C° 0 mm 2 mps 596 mmHg 42%
    22:00 -6°C° 0 mm 2 mps 595 mmHg 43%
    23:00 -6°C° 0 mm 2 mps 595 mmHg 43%

    23 January, Tuesday

    Time Temperature Precipitation Wind Pressure Humidity
    00:00 -6°C° 0 mm 2 mps 595 mmHg 43%
    01:00 -7°C° 0 mm 2 mps 595 mmHg 43%
    02:00 -7°C° 0 mm 2 mps 595 mmHg 44%
    03:00 -7°C° 0 mm 2 mps 595 mmHg 44%
    04:00 -7°C° 0 mm 2 mps 594 mmHg 44%
    05:00 -7°C° 0 mm 2 mps 594 mmHg 44%
    06:00 -8°C° 0 mm 2 mps 594 mmHg 43%
    07:00 -6°C° 0 mm 1 mps 595 mmHg 43%
    08:00 -4°C° 0 mm 1 mps 595 mmHg 44%
    09:00 -3°C° 0 mm 1 mps 596 mmHg 44%
    10:00 -2°C° 0 mm 1 mps 596 mmHg 44%
    11:00 0°C° 0 mm 1 mps 596 mmHg 44%
    12:00 +1°C° 0 mm 1 mps 596 mmHg 44%
    13:00 +1°C° 0 mm 1 mps 595 mmHg 46%
    14:00 +1°C° 0 mm 1 mps 595 mmHg 47%
    15:00 +1°C° 0 mm 1 mps 595 mmHg 49%
    16:00 0°C° 0 mm 1 mps 595 mmHg 51%
    17:00 -1°C° 0 mm 1 mps 595 mmHg 53%
    18:00 -2°C° 0 mm 1 mps 595 mmHg 54%
    19:00 -2°C° 0 mm 1 mps 595 mmHg 57%
    20:00 -3°C° 0 mm 1 mps 595 mmHg 59%
    21:00 -3°C° 0 mm 1 mps 595 mmHg 61%
    22:00 -3°C° 0 mm 1 mps 595 mmHg 62%
    23:00 -4°C° 0 mm 1 mps 595 mmHg 64%
    Show more